User: anonymous   Login
Location: ??????
(41.3164°N, 22.6615°E)
Time: 05:33:10
(UTC+00:00)
Language:

CSL-04 Rocket - Orbit

View from above orbital plane
View from above orbital plane
View from above satellite
View from above satellite

Ground track
Ground track

The orbit data is extracted from the following two-line orbital elements,

1 25732U 99025C   22017.56540946 -.00000019  00000-0  12846-4 0  9991
2 25732  98.8768  59.2102 0037262   0.2128 117.3679 14.17711554173875
Epoch (UTC): 17 January 2022 13:34:11
Eccentricity: 0.0037262
inclination: 98.8768°
perigee height: 806 km
apogee height: 860 km
right ascension of ascending node: 59.2102°
argument of perigee: 0.2128°
revolutions per day: 14.17711554
mean anomaly at epoch: 117.3679°
orbit number at epoch: 17387

The dashed part of the orbit path shows where the satellite is in the earth's shadow,  

DLR